Location: Newark
(48.0000°N, 67.0000°E)
Time: 22:40:21
(UTC+00:00)

Vanguard 3 - All Passes

Search period start: 17 February 2020 00:00
Search period end: 27 February 2020 00:00
Orbit: 508 x 3263 km, 33.3° (Epoch: 17 February)

Date Brightness Start Highest point End Pass type
(mag) Time Alt. Az. Time Alt. Az. Time Alt. Az.
17 Feb - 05:21:52 10° S 05:25:51 15° SE 05:30:57 10° ESE daylight
17 Feb - 07:28:48 10° SW 07:36:30 35° SSE 07:48:51 10° ESE daylight
17 Feb - 09:38:57 10° WSW 09:49:09 41° S 10:04:51 10° ESE daylight
17 Feb - 11:51:14 10° WSW 12:02:52 30° SSW 12:18:03 10° SSE daylight
17 Feb - 14:09:27 10° WSW 14:16:12 13° SW 14:23:25 10° SSW visible
18 Feb - 06:16:39 10° SSW 06:22:37 25° SSE 06:31:37 10° ESE daylight
18 Feb - 08:25:41 10° WSW 08:34:15 39° S 08:48:06 10° ESE daylight
18 Feb - 10:36:46 10° WSW 10:47:28 35° SSW 11:02:51 10° SE daylight
18 Feb - 12:51:01 10° WSW 13:01:02 20° SW 13:12:57 10° S daylight
19 Feb - 05:05:43 10° S 05:09:19 15° SE 05:13:52 10° ESE daylight
19 Feb - 07:12:54 10° SW 07:19:54 34° SSE 07:31:10 10° ESE daylight
19 Feb - 09:23:02 10° WSW 09:32:19 38° S 09:46:47 10° SE daylight
19 Feb - 11:35:21 10° WSW 11:45:44 26° SSW 11:59:28 10° SSE daylight
20 Feb - 06:00:44 10° SSW 06:06:07 24° SSE 06:14:12 10° ESE daylight
20 Feb - 08:09:50 10° WSW 08:17:37 37° S 08:30:13 10° ESE daylight
20 Feb - 10:20:55 10° WSW 10:30:32 31° SSW 10:44:30 10° SE daylight
20 Feb - 12:35:46 10° WSW 12:43:52 17° SW 12:53:26 10° S daylight
21 Feb - 04:49:41 10° S 04:52:52 14° SE 04:56:52 10° ESE daylight
21 Feb - 06:57:05 10° SW 07:03:25 32° SSE 07:13:31 10° ESE daylight
21 Feb - 09:07:14 10° WSW 09:15:36 34° S 09:28:39 10° SE daylight
21 Feb - 11:19:45 10° WSW 11:28:44 22° SSW 11:40:35 10° SSE daylight
22 Feb - 05:44:54 10° SSW 05:49:45 23° SSE 05:56:53 10° ESE daylight
22 Feb - 07:54:05 10° WSW 08:01:06 33° S 08:12:21 10° ESE daylight
22 Feb - 10:05:14 10° WSW 10:13:44 27° SSW 10:25:59 10° SSE daylight
22 Feb - 12:21:28 10° WSW 12:26:51 13° SW 12:32:57 10° SSW daylight
23 Feb - 04:33:44 10° S 04:36:31 14° SSE 04:39:56 10° ESE daylight
23 Feb - 06:41:22 10° SW 06:47:03 29° S 06:55:58 10° ESE daylight
23 Feb - 08:51:33 10° WSW 08:59:01 30° S 09:10:28 10° SE daylight
23 Feb - 11:04:30 10° WSW 11:11:53 18° SSW 11:21:21 10° S daylight
24 Feb - 05:29:08 10° SSW 05:33:28 22° SSE 05:39:39 10° ESE daylight
24 Feb - 07:38:25 10° WSW 07:44:41 29° S 07:54:30 10° SE daylight
24 Feb - 09:49:46 10° WSW 09:57:04 22° SSW 10:07:19 10° SSE daylight
25 Feb - 04:17:52 10° S 04:20:15 13° SSE 04:23:05 10° SE daylight
25 Feb - 06:25:43 10° SW 06:30:46 26° S 06:38:27 10° ESE daylight
25 Feb - 08:36:02 10° WSW 08:42:32 25° S 08:52:13 10° SE daylight
25 Feb - 10:49:56 10° SW 10:55:10 14° SSW 11:01:28 10° S daylight
26 Feb - 05:13:27 10° SSW 05:17:16 20° SSE 05:22:31 10° ESE daylight
26 Feb - 07:22:52 10° SW 07:28:22 25° S 07:36:40 10° SE daylight
26 Feb - 09:34:38 10° WSW 09:40:32 18° SSW 09:48:23 10° SSE daylight
